北斗三号 G3 (BEIDOU 3 G3)

导读

BEIDOU-3 G3 是中国北斗三号全球卫星导航系统中的地球静止轨道卫星之一,属于北斗三号的地球同步轨道(GEO)卫星系列。该卫星主要用于增强系统的定位、导航和授时(PNT)能力,提高区域和全球服务的精度与稳定性。G3 卫星的发射进一步完善了北斗三号星座布局,增强了系统在亚太地区的覆盖和信号强度,为交通运输、通信、农业、应急救援等领域提供高精度服务。

Basic Information
目录编号:
45807
目录名称:
BEIDOU 3 G3
国际标识:
2020-040A
轨道中心:
EARTH
卫星名称:
北斗三号 G3
卫星全名:
北斗三号 G3 (BEIDOU 3 G3)
卫星状态:
在轨 (已飞行2182 天)
发射日期:
2020-06-23 UTC
国别 :
中国 (CN)
星等 :
--
Orbit Information
数据来源 国际轨道数据 AOE轨道数据
星历时间 2026-06-14T06:14:01+0800
13小时前
查看轨道信息
2026-06-14T04:00:00+0800
15小时前
查看轨道信息
半长轴 42165.709km 42165.766km
偏心率 0.0002459 0.0002511
轨道倾角 2.438° 2.439°
近地点辐角 336.086° 337.314°
升交点赤经 67.439° 67.461°
平近点角 302.763° 267.916°
近地点 35777.203km 35777.041km
远地点 35797.941km 35798.217km
周期 1436.147分钟 1436.150分钟
每日圈数 1.002683 1.002681
Detailed Information
卫星平台:
东方红三号B
平衡模式:
三轴稳定
制造商(研发单位):
中国空间技术研究院
制造商所在国:
中国
使用方式:
暂无
工作目标:
为亚洲用户提供连续、稳定、可靠的北斗导航、定位服务
预期寿命:
8年
Satellite Introduction
北斗卫星导航系统是中国着眼于国家安全和经济社会发展需要,自主建设运行的全球卫星导航系统,是为全球用户提供全天候、全天时、高精度的定位、导航和授时服务的国家重要时空基础设施。该卫星仍在工作。
2D Orbit Map
3D Orbit Map
Orbit Altitude Analysis Chart
Orbit Inclination Analysis Chart
Orbit Comprehensive Analysis Chart
View Comprehensive Chart